[[{"header":{"parameterUnit":"m.s-1","parameterCategory":1,"la1":30.2991,"la2":30.254,"lo1":-89.0895,"lo2":-89.0444,"dy":0.0017,"dx":0.0017,"nx":28,"ny":28,"refTime":"2023-09-22T03:00:00:Z","depth":0,"parameterNumber":2,"parameterNumberName":"U-component_of_WINDS"},"data":[0,0,0,0,0,0,0,0,0,0,0,0,0,0,0,0,0,0,0,0,0,0,0,0,0,0,0,0,0,0,0,0,0,0,0,0,0,0,0,0,0,0,0,0,0,0,0,0,0,0,0,0,0,0,0,0,0,0,-2.3931,-2.3931,0,-2.4001,-2.4002,-2.4003,-2.3897,-2.3893,-2.3889,-2.3886,-2.3965,-2.397,-2.3976,0,0,0,0,0,0,0,0,0,0,0,0,0,-2.3709,-2.3713,-2.3931,-2.3931,-2.3932,-2.4001,-2.4002,-2.4003,-2.3897,-2.3893,-2.3888,-2.3884,-2.3963,-2.3969,-2.3976,0,0,0,0,0,0,0,0,0,0,0,0,0,-2.3795,-2.3715,-2.393,-2.3888,-2.3884,-2.4001,-2.4002,-2.4003,-2.3898,-2.3893,-2.3887,-2.3882,-2.3961,-2.3969,-2.3977,-2.4141,0,0,-2.4003,-2.4006,0,0,0,0,0,0,0,0,-2.379,-2.3803,-2.3893,-2.3891,-2.3887,-2.3934,-2.3953,-2.405,-2.39,-2.3893,-2.3885,-2.3879,-2.396,-2.3968,-2.3993,-2.4145,-2.4148,-2.4003,-2.4008,-2.4012,-2.4014,0,0,0,0,0,0,0,-2.3784,-2.38,-2.3959,-2.3894,-2.3891,-2.3866,-2.3873,-2.3971,-2.3957,-2.3893,-2.3886,-2.3895,-2.3957,-2.3986,-2.3994,-2.4149,-2.4003,-2.4011,-2.4016,-2.4019,-2.4439,-2.4445,0,0,0,0,0,0,-2.3783,-2.3795,-2.3956,-2.3961,-2.3824,-2.3875,-2.3882,-2.3925,-2.3956,-2.3955,-2.39,-2.389,-2.3974,-2.3985,-2.3997,-2.4192,-2.4012,-2.402,-2.4025,-2.4433,-2.4441,-2.4447,0,0,0,0,0,0,-2.3779,-2.3798,-2.3954,-2.3876,-2.3894,-2.3885,-2.3934,-2.3929,-2.3958,-2.3961,-2.3958,-2.3931,-2.397,-2.3985,-2.4106,-2.4193,-2.4024,-2.4031,-2.4426,-2.4436,-2.4444,-2.4583,0,0,0,0,0,0,-2.3773,-2.3797,-2.3858,-2.3878,-2.3898,-2.406,-2.3939,-2.3935,-2.3972,-2.3959,-2.399,-2.3989,-2.3967,-2.4094,-2.4114,-2.4202,-2.4038,-2.4418,-2.443,-2.4441,-2.457,-2.4595,-2.4617,0,0,0,0,0,-2.3765,-2.3896,-2.3862,-2.3882,-2.3974,-2.4065,-2.4077,-2.4047,-2.3979,-2.4041,-2.4043,-2.3988,-2.4179,-2.4107,-2.4129,-2.422,-2.4413,-2.4427,-2.444,-2.456,-2.4591,-2.4616,0,0,0,0,0,0,-2.3889,-2.3898,-2.386,-2.4001,-2.4033,-2.4047,-2.4125,-2.408,-2.4134,-2.412,-2.4082,-2.409,-2.4219,-2.4231,-2.415,-2.4381,-2.4285,-2.4304,-2.4369,-2.4398,-2.4421,-2.4416,-2.4045,0,0,0,0,0,-2.3932,-2.4004,-2.4008,-2.4132,-2.4149,-2.4135,-2.4173,-2.4146,-2.4179,-2.4193,-2.4203,-2.4239,-2.4306,-2.4352,-2.4415,-2.457,-2.4577,-2.4644,-2.4668,-2.4687,-2.4704,-2.4789,-2.482,-2.4493,-2.4493,-2.4492,0,0,-2.4024,-2.4037,-2.4085,-2.4157,-2.4179,-2.4255,-2.4147,-2.4232,-2.4289,-2.4206,-2.4321,-2.433,-2.4366,-2.4506,-2.4567,-2.452,-2.4795,-2.4704,-2.472,-2.4727,-2.4806,-2.4837,-2.4865,-2.4502,-2.45,-2.4499,0,0,-2.4229,-2.4246,-2.4351,-2.4374,-2.4407,-2.4396,-2.4422,-2.4442,-2.4444,-2.4558,-2.4497,-2.4565,-2.4683,-2.4712,-2.4742,-2.4957,-2.491,-2.4979,-2.5102,-2.5185,-2.5211,-2.5233,-2.5312,-2.534,-2.4996,-2.4996,-2.4996,0,-2.4339,-2.445,-2.4411,-2.4501,-2.4535,-2.446,-2.4568,-2.4593,-2.4646,-2.4673,-2.4617,-2.4763,-2.4783,-2.4928,-2.4981,-2.5007,-2.5036,-2.4976,-2.5209,-2.5232,-2.5253,-2.5327,-2.5357,-2.5004,-2.5003,-2.5002,-2.5002,0,-2.4585,-2.4662,-2.4744,-2.4795,-2.4838,-2.4936,-2.4914,-2.4962,-2.4932,-2.4927,-2.5044,-2.5065,-2.513,-2.5162,-2.5134,-2.5305,-2.5274,-2.5215,-2.5119,-2.5293,-2.5362,-2.5391,-2.5016,-2.5013,-2.5011,-2.5009,0,0,-2.4873,-2.4899,-2.493,-2.4952,-2.4983,-2.5043,-2.5138,-2.52,-2.5244,-2.5282,-2.5363,-2.5463,-2.5408,-2.5443,-2.5417,-2.549,-2.5661,-2.5422,-2.5422,-2.5467,-2.5852,-2.5898,-2.5932,-2.5628,-2.5633,-2.5637,-2.5849,0,-2.5079,-2.5241,-2.5209,-2.5369,-2.5441,-2.537,-2.5453,-2.5482,-2.548,-2.5543,-2.5541,-2.5613,-2.5535,-2.5555,-2.5623,-2.5626,-2.5738,-2.5609,-2.5705,-2.5709,-2.5701,-2.5968,-2.6017,-2.6216,-2.5876,-2.5881,-2.5884,0,-2.5342,-2.5388,-2.5555,-2.5573,-2.5603,-2.5678,-2.5732,-2.5792,-2.5823,-2.5817,-2.5855,-2.5815,-2.5912,-2.5812,-2.5946,-2.5859,-2.5896,-2.5903,-2.591,-2.592,-2.5809,-2.5987,-2.6278,-2.6309,-2.5926,-2.5923,-2.592,0,-2.5538,-2.5642,-2.5755,-2.5776,-2.58,-2.5855,-2.5868,-2.5893,-2.5933,-2.5981,-2.6006,-2.6066,-2.6099,-2.6147,-2.6125,-2.6054,-2.6264,-2.6162,-2.6264,-2.6265,-2.6314,-2.6311,-2.6617,-2.6334,-2.6333,-2.6333,-2.6332,0,-2.5773,-2.5879,-2.5844,-2.5914,-2.603,-2.5991,-2.6108,-2.6113,-2.6136,-2.6207,-2.615,-2.6218,-2.6184,-2.6251,-2.6234,-2.6349,-2.6364,-2.6363,-2.6358,-2.637,-2.6371,-2.6396,-2.6382,-2.634,-2.6339,-2.6337,-2.6336,0,-2.6014,-2.5994,-2.6113,-2.6125,-2.613,-2.6216,-2.6227,-2.6293,-2.6285,-2.6376,-2.6396,-2.6385,-2.646,-2.6442,-2.6525,-2.6514,-2.6659,-2.6636,-2.6648,-2.6644,-2.6747,-2.6739,-2.7082,-2.7126,-2.6812,-2.6815,-2.6818,0,-2.6166,-2.6245,-2.6265,-2.6307,-2.6324,-2.6393,-2.6432,-2.6397,-2.6441,-2.6482,-2.6544,-2.6614,-2.6668,-2.6792,-2.6793,-2.6857,-2.6836,-2.6952,-2.6845,-2.6855,-2.684,-2.6837,-2.6846,-2.6974,-2.6978,-2.698,-2.6983,0,-2.644,-2.6426,-2.6483,-2.6538,-2.6586,-2.6628,-2.6664,-2.6703,-2.6671,-2.6723,-2.6798,-2.684,-2.6923,-2.6994,-2.7052,-2.7068,-2.7022,-2.7016,-2.7043,-2.7057,-2.7062,-2.7063,-2.6709,-2.7009,-2.7006,-2.7004,-2.7003,-2.7002,-2.6642,-2.6709,-2.6734,-2.68,-2.6823,-2.6859,-2.6921,-2.6921,-2.6982,-2.7046,-2.7021,-2.7108,-2.7138,-2.7211,-2.7233,-2.7302,-2.7259,-2.7298,-2.7308,-2.7319,-2.7333,-2.7049,-2.7312,-2.7311,-2.7311,-2.731,-2.731,0,-2.6915,-2.6926,-2.6987,-2.7039,-2.7092,-2.704,-2.7077,-2.7126,-2.7202,-2.7232,-2.7286,-2.7373,-2.7441,-2.7447,-2.7511,-2.7565,-2.7546,-2.7584,-2.7581,-2.7586,-2.7367,-2.7338,-2.7599,-2.7599,-2.7598,-2.7598,-2.7598,-2.7598,-2.7063,-2.7174,-2.7163,-2.7286,-2.7296,-2.7379,-2.7405,-2.7438,-2.7462,-2.7561,-2.7617,-2.7619,-2.764,-2.7705,-2.7766,-2.7766,-2.7794,-2.7841,-2.7834,-2.763,-2.7601,-2.7574,-2.7546,-2.7847,-2.7847,-2.8047,-2.8049,-2.805]},{"header":{"parameterUnit":"m.s-1","parameterCategory":1,"la1":30.2991,"la2":30.254,"lo1":-89.0895,"lo2":-89.0444,"dy":0.0017,"dx":0.0017,"nx":28,"ny":28,"refTime":"2023-09-22T03:00:00:Z","depth":0,"parameterNumber":3,"parameterNumberName":"V-component_of_WINDS"},"data":[0,0,0,0,0,0,0,0,0,0,0,0,0,0,0,0,0,0,0,0,0,0,0,0,0,0,0,0,0,0,0,0,0,0,0,0,0,0,0,0,0,0,0,0,0,0,0,0,0,0,0,0,0,0,0,0,0,0,-2.8543,-2.8544,0,-2.8581,-2.8581,-2.8581,-2.8566,-2.8565,-2.8565,-2.8564,-2.8598,-2.8599,-2.8601,0,0,0,0,0,0,0,0,0,0,0,0,0,-2.8454,-2.8456,-2.8543,-2.8544,-2.8544,-2.8581,-2.8581,-2.8582,-2.8566,-2.8565,-2.8564,-2.8563,-2.8597,-2.8599,-2.8601,0,0,0,0,0,0,0,0,0,0,0,0,0,-2.8492,-2.8456,-2.8543,-2.8541,-2.8541,-2.8581,-2.8581,-2.8582,-2.8567,-2.8565,-2.8564,-2.8563,-2.8596,-2.8599,-2.8601,-2.8643,0,0,-2.8609,-2.861,0,0,0,0,0,0,0,0,-2.849,-2.8495,-2.8541,-2.8541,-2.8542,-2.8568,-2.8562,-2.8602,-2.8567,-2.8557,-2.8564,-2.8562,-2.8588,-2.8591,-2.8601,-2.8645,-2.8646,-2.8609,-2.8611,-2.8612,-2.8613,0,0,0,0,0,0,0,-2.8487,-2.8494,-2.8558,-2.8542,-2.8542,-2.8537,-2.8541,-2.8569,-2.8579,-2.8558,-2.8557,-2.8562,-2.8588,-2.8599,-2.8602,-2.8647,-2.8609,-2.8612,-2.8613,-2.8614,-2.8725,-2.8726,0,0,0,0,0,0,-2.8485,-2.8491,-2.8557,-2.8559,-2.8512,-2.8539,-2.8544,-2.8561,-2.8579,-2.8581,-2.8563,-2.8561,-2.8595,-2.8599,-2.8603,-2.8652,-2.8612,-2.8614,-2.8616,-2.8723,-2.8725,-2.8726,0,0,0,0,0,0,-2.8483,-2.8491,-2.8555,-2.8525,-2.8533,-2.8542,-2.8561,-2.8562,-2.8573,-2.8583,-2.8584,-2.8572,-2.8594,-2.8599,-2.8633,-2.8653,-2.8616,-2.8618,-2.8722,-2.8724,-2.8726,-2.8751,0,0,0,0,0,0,-2.8481,-2.8491,-2.8508,-2.8526,-2.8535,-2.8586,-2.8562,-2.8564,-2.8578,-2.8575,-2.8592,-2.8593,-2.8594,-2.863,-2.8636,-2.8656,-2.862,-2.872,-2.8723,-2.8725,-2.8748,-2.8754,-2.8758,0,0,0,0,0,-2.8478,-2.8513,-2.8509,-2.8517,-2.8557,-2.8588,-2.8593,-2.8593,-2.8579,-2.8596,-2.8602,-2.8593,-2.865,-2.8633,-2.864,-2.8661,-2.8719,-2.8722,-2.8725,-2.8746,-2.8753,-2.8758,0,0,0,0,0,0,-2.8496,-2.8515,-2.8511,-2.8553,-2.8569,-2.8585,-2.8606,-2.86,-2.8619,-2.8616,-2.8615,-2.8619,-2.8654,-2.8661,-2.8642,-2.8702,-2.8682,-2.8687,-2.8696,-2.8702,-2.8707,-2.8704,-2.8622,0,0,0,0,0,-2.8505,-2.853,-2.8545,-2.8581,-2.8589,-2.8596,-2.861,-2.8609,-2.8625,-2.8631,-2.864,-2.8654,-2.8675,-2.8689,-2.8709,-2.875,-2.8752,-2.8767,-2.8772,-2.8776,-2.878,-2.88,-2.8807,-2.8737,-2.8737,-2.8737,0,0,-2.8524,-2.8537,-2.8553,-2.8585,-2.8597,-2.8621,-2.8602,-2.8629,-2.8646,-2.8635,-2.8667,-2.8674,-2.869,-2.8727,-2.8744,-2.8734,-2.88,-2.878,-2.8784,-2.8785,-2.8804,-2.8811,-2.8816,-2.8739,-2.8739,-2.8738,0,0,-2.857,-2.8584,-2.8614,-2.8627,-2.8646,-2.8651,-2.8658,-2.8675,-2.8679,-2.8713,-2.8704,-2.8724,-2.8761,-2.8772,-2.8782,-2.8832,-2.8824,-2.8839,-2.8864,-2.8884,-2.8889,-2.8894,-2.891,-2.8916,-2.8843,-2.8843,-2.8843,0,-2.859,-2.8628,-2.863,-2.8658,-2.8671,-2.8664,-2.8693,-2.8705,-2.8729,-2.8738,-2.8727,-2.8772,-2.8782,-2.8821,-2.8833,-2.8843,-2.8849,-2.8836,-2.8888,-2.8893,-2.8898,-2.8913,-2.8919,-2.8844,-2.8844,-2.8844,-2.8844,0,-2.8651,-2.8678,-2.87,-2.8725,-2.8741,-2.8769,-2.8774,-2.8789,-2.8787,-2.8792,-2.8825,-2.8837,-2.8859,-2.8868,-2.8866,-2.8906,-2.8899,-2.8889,-2.8868,-2.8906,-2.892,-2.8926,-2.8847,-2.8846,-2.8846,-2.8845,0,0,-2.871,-2.8735,-2.8743,-2.8754,-2.8774,-2.8793,-2.8821,-2.8843,-2.8856,-2.8873,-2.8894,-2.8925,-2.8916,-2.8927,-2.8926,-2.8944,-2.8981,-2.8931,-2.8931,-2.8938,-2.9023,-2.903,-2.9037,-2.8976,-2.8977,-2.8978,-2.9022,0,-2.8756,-2.8806,-2.8808,-2.8852,-2.8876,-2.8868,-2.8892,-2.8906,-2.8911,-2.893,-2.8935,-2.8957,-2.8943,-2.895,-2.8967,-2.8973,-2.8997,-2.897,-2.8994,-2.8995,-2.8989,-2.9045,-2.9053,-2.9093,-2.9027,-2.9028,-2.9029,0,-2.8817,-2.8837,-2.8884,-2.89,-2.8909,-2.8931,-2.8951,-2.897,-2.8985,-2.8987,-2.9001,-2.8997,-2.9023,-2.9003,-2.9038,-2.9019,-2.9029,-2.9033,-2.9035,-2.9036,-2.9013,-2.9046,-2.9107,-2.9112,-2.9038,-2.9038,-2.9037,0,-2.8853,-2.8891,-2.8924,-2.8933,-2.8953,-2.8968,-2.8976,-2.899,-2.9003,-2.9021,-2.9029,-2.9048,-2.9059,-2.9073,-2.9074,-2.906,-2.9109,-2.9089,-2.911,-2.911,-2.9119,-2.9118,-2.9181,-2.9128,-2.9128,-2.9128,-2.9128,0,-2.8903,-2.8932,-2.894,-2.896,-2.8991,-2.8993,-2.9023,-2.903,-2.9043,-2.9062,-2.9057,-2.9075,-2.9076,-2.9095,-2.9096,-2.9123,-2.9129,-2.913,-2.9129,-2.913,-2.9129,-2.9135,-2.9131,-2.913,-2.9129,-2.9129,-2.9129,0,-2.8948,-2.8955,-2.8989,-2.9006,-2.901,-2.9032,-2.9045,-2.9063,-2.9068,-2.9093,-2.9099,-2.9106,-2.9128,-2.9131,-2.9155,-2.9156,-2.9189,-2.9186,-2.9184,-2.9183,-2.9203,-2.92,-2.927,-2.9278,-2.9222,-2.9222,-2.9223,0,-2.8979,-2.9001,-2.902,-2.9034,-2.9043,-2.9065,-2.9079,-2.9081,-2.9095,-2.9113,-2.9129,-2.915,-2.9167,-2.9201,-2.9207,-2.9226,-2.9222,-2.9245,-2.9225,-2.9224,-2.9221,-2.9219,-2.922,-2.9249,-2.9249,-2.925,-2.925,0,-2.9034,-2.9036,-2.9056,-2.9077,-2.9094,-2.911,-2.9126,-2.9137,-2.9141,-2.9156,-2.9179,-2.9192,-2.9218,-2.9238,-2.9256,-2.9263,-2.9257,-2.9257,-2.9262,-2.9262,-2.9259,-2.9259,-2.9193,-2.9255,-2.9255,-2.9254,-2.9254,-2.9254,-2.9071,-2.909,-2.9106,-2.9128,-2.914,-2.9155,-2.9172,-2.918,-2.9199,-2.9221,-2.9221,-2.9245,-2.9258,-2.9282,-2.929,-2.9308,-2.93,-2.9308,-2.931,-2.9312,-2.9313,-2.9258,-2.9312,-2.9311,-2.9311,-2.9311,-2.9311,0,-2.9124,-2.9134,-2.9154,-2.9177,-2.9194,-2.9188,-2.9205,-2.9219,-2.9241,-2.9254,-2.9271,-2.9296,-2.9316,-2.9324,-2.9343,-2.9355,-2.9353,-2.936,-2.9358,-2.9359,-2.932,-2.9313,-2.9362,-2.9362,-2.9361,-2.9361,-2.9361,-2.9361,-2.9153,-2.9183,-2.9187,-2.9223,-2.9233,-2.9257,-2.9267,-2.928,-2.929,-2.9319,-2.9336,-2.9341,-2.9352,-2.9372,-2.9389,-2.939,-2.9397,-2.9405,-2.9405,-2.9368,-2.9362,-2.9357,-2.9351,-2.9407,-2.9407,-2.9443,-2.9443,-2.9444]}]]